Location: Capon Springs and Farms
(39.1310°N, 78.4814°W)
Time: 13:24:44
(UTC-04:00)

ISS - Visible Passes

Search period start: 15 October 2019 00:00
Search period end: 25 October 2019 00:00
Orbit: 411 x 421 km, 51.6° (Epoch: 15 October)

Date Brightness Start Highest point End Pass type
(mag) Time Alt. Az. Time Alt. Az. Time Alt. Az.
22 Oct -1.5 06:59:58 10° SSW 07:02:53 28° SE 07:05:48 10° ENE visible
23 Oct -0.8 06:12:21 10° S 06:14:28 16° SE 06:16:35 10° E visible
24 Oct -3.7 06:58:57 10° SW 07:02:18 87° SE 07:05:41 10° NE visible
